This is the latest recevied weather packets stored in our database for station/object KB2EAR-13. If no packets are shown the sender has not sent any weather packets the latest 1 day(s).
| Time | Temp. | Humidity | Pressure | Rain* | Wind** | Luminosity | Snow |
|---|---|---|---|---|---|---|---|
| 1778059817 | 17.78° C | 80% | 1010.1 hPa | 0 mm | - | - | - |
| 1778057717 | 17.78° C | 79% | 1010.3 hPa | 0 mm | - | - | - |
| 1778056817 | 18.33° C | 79% | 1010.4 hPa | 0 mm | - | - | - |
| 1778056517 | 18.33° C | 79% | 1010.4 hPa | 0 mm | - | - | - |
| 1778056217 | 18.33° C | 79% | 1010.3 hPa | 0 mm | - | - | - |
| 1778055617 | 18.33° C | 79% | 1010.4 hPa | 0 mm | - | - | - |
| 1778052316 | 18.33° C | 77% | 1010.6 hPa | 0 mm | - | - | - |
| 1778051717 | 18.89° C | 77% | 1010.6 hPa | 0 mm | - | - | - |
| 1778050516 | 18.89° C | 76% | 1010.8 hPa | 0 mm | - | - | - |
| 1778049617 | 18.89° C | 75% | 1010.8 hPa | 0 mm | - | - | - |
| 1778046916 | 19.44° C | 73% | 1010.8 hPa | 0 mm | - | - | - |
| 1778046616 | 19.44° C | 73% | 1010.8 hPa | 0 mm | - | - | - |
| 1778045716 | 19.44° C | 72% | 1011.1 hPa | 0 mm | - | - | - |
| 1778045116 | 19.44° C | 71% | 1011.1 hPa | 0 mm | - | - | - |
| 1778044216 | 19.44° C | 70% | 1011.4 hPa | 0 mm | - | - | - |
| 1778043916 | 19.44° C | 70% | 1011.6 hPa | 0 mm | - | - | - |
| 1778043316 | 20° C | 70% | 1011.5 hPa | 0 mm | - | - | - |
| 1778043016 | 20° C | 69% | 1011.6 hPa | 0 mm | - | - | - |
| 1778042716 | 20° C | 69% | 1011.4 hPa | 0 mm | - | - | - |
| 1778042416 | 20° C | 69% | 1011.6 hPa | 0 mm | - | - | - |
| 1778042116 | 20° C | 69% | 1011.6 hPa | 0 mm | - | - | - |
| 1778041830 | 20° C | 69% | 1011.6 hPa | 0 mm | - | - | - |
| 1778041816 | 20° C | 69% | 1011.5 hPa | 0 mm | - | - | - |
| 1778041516 | 20° C | 69% | 1011.6 hPa | 0 mm | - | - | - |
| 1778040916 | 19.44° C | 69% | 1011.5 hPa | 0 mm | - | - | - |
* Rain latest hour (hover to see other rain measurements)
** Current wind speed in m/s (hover to see current wind gust speed)